EZY3488 LGAV-LIRN

Flight info

Callsign EZY3488
Flight time 1h 31m
Altitude 30000
Route KOR UL53 IXONI DCT TIGRA DCT MOKTO DCT DOGUS DCT EKTOL
Aircraft A319/M-SDE3FGHIRWY/LB1

Departure

Time 2026-05-07 09:09
Airport Athens Eleftherios Venizelos International Airport (LGAV)

Arrival

Time 2026-05-07 10:41
Airport Naples International Airport (LIRN)
Time Latitude Longitude Altitude Speed Heading
2026-05-07 08:36 37.93076 23.94230 275 ft 0 kts 37°
2026-05-07 08:54 37.93068 23.94223 274 ft 3 kts 37°
2026-05-07 08:54 37.93050 23.94206 274 ft 3 kts 37°
2026-05-07 08:55 37.93032 23.94188 273 ft 3 kts 37°
2026-05-07 08:55 37.93016 23.94170 272 ft 3 kts 59°
2026-05-07 08:55 37.93014 23.94143 272 ft 3 kts 107°
2026-05-07 08:55 37.93015 23.94138 271 ft 0 kts 115°
2026-05-07 09:00 37.93015 23.94139 271 ft 0 kts 121°
2026-05-07 09:01 37.93003 23.94155 272 ft 5 kts 133°
2026-05-07 09:01 37.92974 23.94197 273 ft 9 kts 130°
2026-05-07 09:01 37.92936 23.94261 276 ft 11 kts 124°
2026-05-07 09:01 37.92896 23.94334 279 ft 12 kts 127°
2026-05-07 09:02 37.92844 23.94421 279 ft 15 kts 124°
2026-05-07 09:02 37.92867 23.94531 279 ft 16 kts 41°
2026-05-07 09:02 37.92939 23.94599 281 ft 16 kts 38°
2026-05-07 09:02 37.93020 23.94681 282 ft 18 kts 37°
2026-05-07 09:03 37.93115 23.94770 284 ft 20 kts 37°
2026-05-07 09:03 37.93216 23.94866 287 ft 21 kts 37°
2026-05-07 09:03 37.93324 23.94970 286 ft 24 kts 37°
2026-05-07 09:03 37.93448 23.95089 285 ft 27 kts 37°
2026-05-07 09:04 37.93589 23.95223 281 ft 30 kts 37°
2026-05-07 09:04 37.93738 23.95360 279 ft 31 kts 38°
2026-05-07 09:04 37.93883 23.95502 277 ft 30 kts 38°
2026-05-07 09:04 37.94018 23.95630 279 ft 27 kts 37°
2026-05-07 09:05 37.94153 23.95763 281 ft 27 kts 38°
2026-05-07 09:05 37.94284 23.95888 283 ft 27 kts 38°
2026-05-07 09:05 37.94413 23.96005 288 ft 25 kts 37°
2026-05-07 09:05 37.94535 23.96119 291 ft 24 kts 38°
2026-05-07 09:06 37.94652 23.96234 294 ft 23 kts 37°
2026-05-07 09:06 37.94764 23.96342 299 ft 22 kts 36°
2026-05-07 09:06 37.94875 23.96446 301 ft 22 kts 37°
2026-05-07 09:06 37.94979 23.96547 307 ft 20 kts 36°
2026-05-07 09:07 37.95080 23.96639 310 ft 20 kts 38°
2026-05-07 09:07 37.95182 23.96738 310 ft 21 kts 37°
2026-05-07 09:07 37.95288 23.96839 312 ft 21 kts 37°
2026-05-07 09:07 37.95378 23.96955 313 ft 20 kts 83°
2026-05-07 09:08 37.95300 23.97029 313 ft 17 kts 170°
2026-05-07 09:08 37.95195 23.97026 313 ft 16 kts 204°
2026-05-07 09:08 37.95151 23.96989 312 ft 7 kts 215°
2026-05-07 09:08 37.95025 23.96870 310 ft 59 kts 217°
2026-05-07 09:09 37.94568 23.96435 292 ft 126 kts 216°
2026-05-07 09:09 37.93859 23.95805 538 ft 152 kts 212°
2026-05-07 09:09 37.93089 23.95127 1062 ft 156 kts 213°
2026-05-07 09:09 37.92263 23.94493 1680 ft 159 kts 205°
2026-05-07 09:10 37.91371 23.94003 2345 ft 162 kts 202°
2026-05-07 09:10 37.90425 23.93473 2842 ft 175 kts 205°
2026-05-07 09:10 37.89402 23.92840 3302 ft 190 kts 206°
2026-05-07 09:10 37.88317 23.92124 3755 ft 206 kts 208°
2026-05-07 09:11 37.87103 23.91295 4177 ft 227 kts 208°
2026-05-07 09:11 37.85859 23.90246 4705 ft 243 kts 227°
2026-05-07 09:11 37.85107 23.88336 5257 ft 263 kts 262°
2026-05-07 09:11 37.85175 23.86232 5987 ft 271 kts 278°
2026-05-07 09:12 37.85471 23.84187 6807 ft 273 kts 280°
2026-05-07 09:12 37.85779 23.82089 7618 ft 276 kts 280°
2026-05-07 09:12 37.86049 23.79999 8442 ft 278 kts 279°
2026-05-07 09:12 37.86293 23.77843 9265 ft 280 kts 279°
2026-05-07 09:13 37.86513 23.75686 10040 ft 283 kts 278°
2026-05-07 09:13 37.86730 23.73419 10714 ft 291 kts 278°
2026-05-07 09:13 37.86963 23.70842 11185 ft 309 kts 278°
2026-05-07 09:13 37.87202 23.68087 11669 ft 324 kts 278°
2026-05-07 09:14 37.87435 23.65296 12408 ft 330 kts 277°
2026-05-07 09:14 37.87643 23.62746 13167 ft 331 kts 278°
2026-05-07 09:14 37.87852 23.60201 13888 ft 333 kts 277°
2026-05-07 09:14 37.88067 23.57577 14581 ft 336 kts 277°
2026-05-07 09:15 37.88285 23.54892 15256 ft 339 kts 277°
2026-05-07 09:15 37.88512 23.52076 15942 ft 343 kts 277°
2026-05-07 09:15 37.88738 23.49260 16649 ft 345 kts 276°
2026-05-07 09:15 37.88958 23.46500 17287 ft 347 kts 276°
2026-05-07 09:16 37.89170 23.43848 17921 ft 349 kts 276°
2026-05-07 09:16 37.89379 23.41205 18491 ft 352 kts 276°
2026-05-07 09:16 37.89592 23.38483 19044 ft 355 kts 276°
2026-05-07 09:16 37.89803 23.35792 19604 ft 357 kts 276°
2026-05-07 09:17 37.90013 23.33090 20198 ft 359 kts 275°
2026-05-07 09:17 37.90228 23.30343 20757 ft 361 kts 275°
2026-05-07 09:17 37.90443 23.27605 21303 ft 363 kts 275°
2026-05-07 09:17 37.90655 23.24864 21856 ft 364 kts 275°
2026-05-07 09:18 37.90869 23.22098 22370 ft 367 kts 275°
2026-05-07 09:18 37.91084 23.19305 22877 ft 369 kts 275°
2026-05-07 09:18 37.91301 23.16491 23386 ft 371 kts 275°
2026-05-07 09:18 37.91521 23.13654 23866 ft 374 kts 275°
2026-05-07 09:19 37.91736 23.10861 24317 ft 377 kts 275°
2026-05-07 09:19 37.91956 23.07979 24790 ft 379 kts 275°
2026-05-07 09:19 37.92170 23.05145 25233 ft 381 kts 275°
2026-05-07 09:19 37.92389 23.02255 25674 ft 383 kts 275°
2026-05-07 09:20 37.92608 22.99365 26084 ft 385 kts 274°
2026-05-07 09:20 37.92927 22.96478 26476 ft 389 kts 281°
2026-05-07 09:20 37.93573 22.93681 26874 ft 392 kts 289°
2026-05-07 09:20 37.94552 22.90984 27276 ft 396 kts 296°
2026-05-07 09:21 37.95830 22.88424 27638 ft 400 kts 301°
2026-05-07 09:21 37.97207 22.85927 28004 ft 403 kts 302°
2026-05-07 09:21 37.98597 22.83447 28352 ft 405 kts 302°
2026-05-07 09:21 38.00003 22.80936 28688 ft 408 kts 302°
2026-05-07 09:22 38.01408 22.78411 29057 ft 409 kts 302°
2026-05-07 09:22 38.02819 22.75852 29394 ft 411 kts 302°
2026-05-07 09:22 38.04223 22.73301 29734 ft 412 kts 302°
2026-05-07 09:22 38.05626 22.70745 30027 ft 414 kts 302°
2026-05-07 09:23 38.08457 22.65582 30075 ft 413 kts 302°
2026-05-07 09:23 38.11310 22.60373 30082 ft 413 kts 302°
2026-05-07 09:24 38.14163 22.55157 30084 ft 412 kts 302°
2026-05-07 09:24 38.17058 22.49855 30085 ft 413 kts 302°
2026-05-07 09:25 38.19894 22.44646 30087 ft 412 kts 302°
2026-05-07 09:25 38.22730 22.39429 30086 ft 412 kts 302°
2026-05-07 09:26 38.25574 22.34189 30082 ft 413 kts 301°
2026-05-07 09:26 38.28392 22.28993 30090 ft 412 kts 301°
2026-05-07 09:27 38.31224 22.23761 30108 ft 413 kts 301°
2026-05-07 09:28 38.35573 22.16013 30134 ft 411 kts 303°
2026-05-07 09:28 38.38492 22.10869 30136 ft 412 kts 303°
2026-05-07 09:29 38.41402 22.05720 30140 ft 412 kts 302°
2026-05-07 09:29 38.44305 22.00565 30138 ft 412 kts 302°
2026-05-07 09:30 38.47199 21.95418 30128 ft 413 kts 302°
2026-05-07 09:30 38.50123 21.90213 30130 ft 414 kts 302°
2026-05-07 09:31 38.53052 21.84982 30136 ft 415 kts 303°
2026-05-07 09:31 38.55990 21.79729 30135 ft 417 kts 302°
2026-05-07 09:32 38.58919 21.74482 30139 ft 417 kts 303°
2026-05-07 09:32 38.61887 21.69158 30143 ft 419 kts 302°
2026-05-07 09:33 38.64825 21.63875 30134 ft 419 kts 302°
2026-05-07 09:33 38.67776 21.58562 30127 ft 419 kts 302°
2026-05-07 09:34 38.70727 21.53243 30123 ft 421 kts 303°
2026-05-07 09:34 38.73690 21.47893 30121 ft 421 kts 303°
2026-05-07 09:35 38.76647 21.42545 30113 ft 424 kts 303°
2026-05-07 09:35 38.79621 21.37157 30110 ft 425 kts 303°
2026-05-07 09:36 38.82592 21.31764 30114 ft 425 kts 302°
2026-05-07 09:36 38.85572 21.26348 30108 ft 427 kts 302°
2026-05-07 09:37 38.88546 21.20933 30103 ft 426 kts 302°
2026-05-07 09:37 38.91552 21.15452 30103 ft 428 kts 302°
2026-05-07 09:38 38.94550 21.09974 30101 ft 429 kts 302°
2026-05-07 09:38 38.97529 21.04517 30096 ft 429 kts 302°
2026-05-07 09:39 39.00512 20.99050 30088 ft 431 kts 303°
2026-05-07 09:39 39.03515 20.93539 30088 ft 431 kts 302°
2026-05-07 09:40 39.06512 20.88030 30088 ft 430 kts 303°
2026-05-07 09:40 39.09504 20.82521 30089 ft 429 kts 302°
2026-05-07 09:41 39.12467 20.77049 30092 ft 429 kts 302°
2026-05-07 09:41 39.15418 20.71590 30092 ft 427 kts 302°
2026-05-07 09:42 39.18382 20.66099 30093 ft 428 kts 302°
2026-05-07 09:42 39.21287 20.60712 30094 ft 428 kts 302°
2026-05-07 09:43 39.24181 20.55330 30093 ft 427 kts 302°
2026-05-07 09:43 39.27065 20.49956 30087 ft 426 kts 302°
2026-05-07 09:44 39.29956 20.44567 30086 ft 425 kts 302°
2026-05-07 09:44 39.32857 20.39149 30089 ft 426 kts 302°
2026-05-07 09:45 39.35762 20.33714 30094 ft 428 kts 301°
2026-05-07 09:45 39.38703 20.28201 30094 ft 429 kts 301°
2026-05-07 09:46 39.41603 20.22760 30090 ft 428 kts 301°
2026-05-07 09:46 39.44619 20.17087 30088 ft 427 kts 301°
2026-05-07 09:47 39.47635 20.11405 30086 ft 427 kts 301°
2026-05-07 09:47 39.50654 20.05706 30088 ft 430 kts 301°
2026-05-07 09:48 39.53885 19.99597 30088 ft 430 kts 301°
2026-05-07 09:48 39.56913 19.93857 30089 ft 434 kts 301°
2026-05-07 09:49 39.59964 19.88069 30092 ft 434 kts 301°
2026-05-07 09:49 39.63199 19.81915 30090 ft 435 kts 301°
2026-05-07 09:50 39.66552 19.75527 30094 ft 434 kts 301°
2026-05-07 09:50 39.69918 19.69104 30092 ft 434 kts 301°
2026-05-07 09:51 39.73272 19.62685 30087 ft 433 kts 301°
2026-05-07 09:51 39.76597 19.56308 30089 ft 434 kts 301°
2026-05-07 09:52 39.79945 19.49880 30084 ft 434 kts 301°
2026-05-07 09:52 39.83312 19.43396 30083 ft 435 kts 301°
2026-05-07 09:53 39.86630 19.36999 30075 ft 435 kts 301°
2026-05-07 09:53 39.89941 19.30601 30073 ft 433 kts 301°
2026-05-07 09:54 39.93299 19.24095 30072 ft 434 kts 301°
2026-05-07 09:54 39.96621 19.17649 30074 ft 435 kts 301°
2026-05-07 09:55 39.99931 19.11213 30070 ft 433 kts 301°
2026-05-07 09:55 40.03253 19.04717 30063 ft 434 kts 300°
2026-05-07 09:56 40.06174 18.98014 30065 ft 431 kts 294°
2026-05-07 09:56 40.08564 18.90921 30063 ft 430 kts 289°
2026-05-07 09:57 40.10766 18.83881 30058 ft 430 kts 289°
2026-05-07 09:57 40.12885 18.77097 30063 ft 429 kts 289°
2026-05-07 09:58 40.14857 18.70784 30054 ft 429 kts 289°
2026-05-07 09:58 40.16795 18.64578 30063 ft 429 kts 289°
2026-05-07 09:59 40.18687 18.58501 30055 ft 429 kts 289°
2026-05-07 09:59 40.20598 18.52355 30062 ft 430 kts 288°
2026-05-07 10:00 40.22490 18.46249 30062 ft 429 kts 288°
2026-05-07 10:00 40.24387 18.40118 30062 ft 429 kts 288°
2026-05-07 10:01 40.26265 18.34032 30066 ft 429 kts 288°
2026-05-07 10:01 40.28156 18.27894 30068 ft 428 kts 288°
2026-05-07 10:02 40.30028 18.21805 30064 ft 429 kts 288°
2026-05-07 10:02 40.31908 18.15670 30068 ft 429 kts 287°
2026-05-07 10:03 40.33785 18.09532 30064 ft 428 kts 287°
2026-05-07 10:03 40.35644 18.03446 30065 ft 428 kts 287°
2026-05-07 10:04 40.37525 17.97270 30057 ft 427 kts 287°
2026-05-07 10:04 40.39419 17.91031 30048 ft 426 kts 287°
2026-05-07 10:05 40.41285 17.84872 30048 ft 425 kts 287°
2026-05-07 10:05 40.43147 17.78719 30049 ft 423 kts 287°
2026-05-07 10:06 40.44984 17.72632 30046 ft 423 kts 287°
2026-05-07 10:06 40.46815 17.66545 30041 ft 424 kts 287°
2026-05-07 10:07 40.48619 17.60543 30043 ft 422 kts 287°
2026-05-07 10:07 40.50418 17.54538 30042 ft 421 kts 288°
2026-05-07 10:08 40.52216 17.48529 30037 ft 421 kts 287°
2026-05-07 10:08 40.54009 17.42516 30044 ft 419 kts 288°
2026-05-07 10:09 40.55801 17.36490 30040 ft 420 kts 288°
2026-05-07 10:09 40.57593 17.30459 30036 ft 419 kts 287°
2026-05-07 10:10 40.59374 17.24447 30040 ft 419 kts 287°
2026-05-07 10:10 40.61171 17.18358 30020 ft 418 kts 287°
2026-05-07 10:11 40.62912 17.12328 30041 ft 418 kts 287°
2026-05-07 10:11 40.64648 17.06163 30024 ft 418 kts 287°
2026-05-07 10:12 40.66376 17.00020 30028 ft 417 kts 287°
2026-05-07 10:12 40.68109 16.93862 30013 ft 418 kts 287°
2026-05-07 10:13 40.69857 16.87634 30038 ft 419 kts 287°
2026-05-07 10:13 40.71596 16.81429 30015 ft 417 kts 287°
2026-05-07 10:14 40.73342 16.75183 30006 ft 416 kts 287°
2026-05-07 10:14 40.75090 16.68909 30035 ft 416 kts 287°
2026-05-07 10:15 40.76834 16.62637 30007 ft 418 kts 287°
2026-05-07 10:15 40.78562 16.56405 30013 ft 416 kts 287°
2026-05-07 10:16 40.80299 16.50126 30015 ft 416 kts 288°
2026-05-07 10:16 40.82024 16.43885 30002 ft 416 kts 287°
2026-05-07 10:17 40.83750 16.37623 30013 ft 415 kts 288°
2026-05-07 10:17 40.85451 16.31423 30010 ft 416 kts 287°
2026-05-07 10:18 40.87163 16.25164 30018 ft 416 kts 287°
2026-05-07 10:18 40.88867 16.18936 30000 ft 414 kts 287°
2026-05-07 10:19 40.90566 16.12705 30017 ft 415 kts 287°
2026-05-07 10:19 40.92256 16.06497 29935 ft 410 kts 287°
2026-05-07 10:19 40.93093 16.03414 29441 ft 407 kts 288°
2026-05-07 10:20 40.93922 16.00367 28855 ft 405 kts 287°
2026-05-07 10:20 40.94736 15.97360 28311 ft 403 kts 287°
2026-05-07 10:20 40.95554 15.94336 27738 ft 401 kts 287°
2026-05-07 10:20 40.96370 15.91320 27179 ft 399 kts 287°
2026-05-07 10:21 40.97175 15.88336 26677 ft 395 kts 287°
2026-05-07 10:21 40.97976 15.85363 26129 ft 392 kts 286°
2026-05-07 10:21 40.98763 15.82434 25595 ft 390 kts 287°
2026-05-07 10:21 40.99538 15.79544 25087 ft 386 kts 286°
2026-05-07 10:22 41.00316 15.76647 24558 ft 384 kts 286°
2026-05-07 10:22 41.01090 15.73761 24028 ft 382 kts 286°
2026-05-07 10:22 41.01666 15.70917 23440 ft 372 kts 276°
2026-05-07 10:22 41.01866 15.68077 22674 ft 367 kts 270°
2026-05-07 10:23 41.01955 15.65206 21854 ft 365 kts 270°
2026-05-07 10:23 41.02031 15.62405 21067 ft 362 kts 270°
2026-05-07 10:23 41.02117 15.59611 20307 ft 358 kts 271°
2026-05-07 10:23 41.02216 15.56856 19541 ft 354 kts 271°
2026-05-07 10:24 41.02324 15.54132 18792 ft 351 kts 271°
2026-05-07 10:24 41.02437 15.51430 18050 ft 347 kts 271°
2026-05-07 10:24 41.02554 15.48751 17308 ft 344 kts 271°
2026-05-07 10:24 41.02671 15.46093 16667 ft 343 kts 271°
2026-05-07 10:25 41.02791 15.43454 16295 ft 338 kts 272°
2026-05-07 10:25 41.02909 15.40837 15944 ft 334 kts 272°
2026-05-07 10:25 41.03029 15.38215 15569 ft 331 kts 272°
2026-05-07 10:25 41.03146 15.35630 15221 ft 329 kts 272°
2026-05-07 10:26 41.03260 15.33087 14847 ft 327 kts 271°
2026-05-07 10:26 41.03375 15.30556 14486 ft 325 kts 271°
2026-05-07 10:26 41.03488 15.28042 14140 ft 323 kts 271°
2026-05-07 10:26 41.03599 15.25548 13794 ft 320 kts 271°
2026-05-07 10:27 41.03709 15.23074 13427 ft 319 kts 271°
2026-05-07 10:27 41.03820 15.20569 13044 ft 317 kts 271°
2026-05-07 10:27 41.03928 15.18117 12649 ft 316 kts 271°
2026-05-07 10:27 41.04036 15.15650 12250 ft 315 kts 271°
2026-05-07 10:28 41.04142 15.13215 11845 ft 314 kts 271°
2026-05-07 10:28 41.04248 15.10777 11444 ft 314 kts 271°
2026-05-07 10:28 41.04354 15.08347 11052 ft 312 kts 271°
2026-05-07 10:28 41.04457 15.05942 10661 ft 311 kts 271°
2026-05-07 10:29 41.04562 15.03511 10337 ft 306 kts 271°
2026-05-07 10:29 41.04665 15.01145 10187 ft 295 kts 271°
2026-05-07 10:29 41.04762 14.98889 10123 ft 283 kts 271°
2026-05-07 10:30 41.04946 14.94558 9827 ft 267 kts 271°
2026-05-07 10:30 41.05033 14.92459 9502 ft 268 kts 271°
2026-05-07 10:30 41.05120 14.90355 9190 ft 267 kts 271°
2026-05-07 10:30 41.05206 14.88259 8880 ft 267 kts 271°
2026-05-07 10:31 41.05292 14.86145 8572 ft 266 kts 271°
2026-05-07 10:31 41.05378 14.84060 8271 ft 266 kts 271°
2026-05-07 10:31 41.05465 14.81959 7972 ft 265 kts 271°
2026-05-07 10:31 41.05551 14.79851 7645 ft 266 kts 271°
2026-05-07 10:32 41.05637 14.77730 7317 ft 266 kts 272°
2026-05-07 10:32 41.05721 14.75648 7054 ft 263 kts 272°
2026-05-07 10:32 41.05804 14.73583 6992 ft 252 kts 272°
2026-05-07 10:32 41.05883 14.71636 6985 ft 240 kts 272°
2026-05-07 10:33 41.05959 14.69772 6987 ft 227 kts 272°
2026-05-07 10:33 41.05971 14.68039 6969 ft 215 kts 263°
2026-05-07 10:33 41.05736 14.66400 6881 ft 207 kts 252°
2026-05-07 10:33 41.05286 14.64889 6662 ft 206 kts 243°
2026-05-07 10:34 41.04704 14.63417 6410 ft 207 kts 241°
2026-05-07 10:34 41.04091 14.61973 6157 ft 208 kts 239°
2026-05-07 10:34 41.03448 14.60525 5895 ft 209 kts 239°
2026-05-07 10:34 41.02793 14.59091 5634 ft 210 kts 238°
2026-05-07 10:35 41.02124 14.57651 5367 ft 212 kts 238°
2026-05-07 10:35 41.01446 14.56210 5105 ft 213 kts 238°
2026-05-07 10:35 41.00769 14.54782 4842 ft 214 kts 238°
2026-05-07 10:35 41.00073 14.53317 4573 ft 215 kts 238°
2026-05-07 10:36 40.99372 14.51843 4298 ft 216 kts 238°
2026-05-07 10:36 40.98674 14.50376 4026 ft 217 kts 239°
2026-05-07 10:36 40.97966 14.48887 3747 ft 218 kts 239°
2026-05-07 10:36 40.97214 14.47303 3451 ft 219 kts 239°
2026-05-07 10:37 40.96457 14.45705 3151 ft 219 kts 239°
2026-05-07 10:37 40.95689 14.44086 2836 ft 208 kts 239°
2026-05-07 10:37 40.94977 14.42582 2551 ft 199 kts 239°
2026-05-07 10:37 40.94305 14.41160 2288 ft 192 kts 239°
2026-05-07 10:38 40.93675 14.39828 2103 ft 181 kts 239°
2026-05-07 10:38 40.93071 14.38549 1849 ft 174 kts 239°
2026-05-07 10:38 40.92517 14.37377 1606 ft 169 kts 240°
2026-05-07 10:38 40.91974 14.36226 1392 ft 161 kts 239°
2026-05-07 10:39 40.91467 14.35153 1185 ft 153 kts 239°
2026-05-07 10:39 40.90999 14.34163 986 ft 144 kts 239°
2026-05-07 10:39 40.90550 14.33210 801 ft 134 kts 239°
2026-05-07 10:39 40.90131 14.32321 647 ft 133 kts 239°
2026-05-07 10:40 40.89712 14.31416 479 ft 133 kts 239°
2026-05-07 10:40 40.89284 14.30524 305 ft 132 kts 238°
2026-05-07 10:40 40.88868 14.29648 250 ft 124 kts 238°
2026-05-07 10:40 40.88547 14.28957 262 ft 81 kts 239°
2026-05-07 10:41 40.88345 14.28555 275 ft 46 kts 224°
2026-05-07 10:41 40.88191 14.28394 284 ft 28 kts 212°
2026-05-07 10:41 40.88087 14.28326 288 ft 17 kts 194°
2026-05-07 10:41 40.88011 14.28340 291 ft 12 kts 110°
2026-05-07 10:42 40.88030 14.28437 291 ft 14 kts 70°
2026-05-07 10:42 40.88041 14.28550 289 ft 15 kts 93°
2026-05-07 10:42 40.88092 14.28568 287 ft 9 kts 325°
2026-05-07 10:42 40.88118 14.28547 286 ft 0 kts 329°